Time,TemperatureF,DewpointF,PressureIn,WindDirection,WindDirectionDegrees,WindSpeedMPH,WindSpeedGustMPH,Humidity,HourlyPrecipIn,Conditions,Clouds,dailyrainin,SoftwareType,DateUTC
2013-06-06 00:00:00,56.3,47.0,30.10,SW,214,0.0,0.0,71,0.00,,,0.00,WeatherDisplay:10.37,2013-06-06 04:00:00,
2013-06-06 00:01:00,56.2,46.9,30.10,SW,214,0.0,0.0,71,0.00,,,0.00,WeatherDisplay:10.37,2013-06-06 04:01:00,
2013-06-06 00:02:00,56.2,46.5,30.10,SW,229,1.1,1.1,70,0.00,,,0.00,WeatherDisplay:10.37,2013-06-06 04:02:00,
2013-06-06 00:07:00,56.2,46.5,30.10,SW,229,0.0,0.0,70,0.00,,,0.00,WeatherDisplay:10.37,2013-06-06 04:07:00,
2013-06-06 00:12:00,56.1,46.8,30.10,South,176,0.0,0.0,71,0.00,,,0.00,WeatherDisplay:10.37,2013-06-06 04:12:00,
2013-06-06 00:17:00,55.9,47.0,30.10,South,176,0.0,0.0,72,0.00,,,0.00,WeatherDisplay:10.37,2013-06-06 04:17:00,
2013-06-06 00:22:00,55.8,47.3,30.10,South,176,0.0,0.0,73,0.00,,,0.00,WeatherDisplay:10.37,2013-06-06 04:22:00,
2013-06-06 00:27:00,55.7,47.5,30.10,South,176,0.0,0.0,74,0.00,,,0.00,WeatherDisplay:10.37,2013-06-06 04:27:00,
2013-06-06 00:32:00,55.3,47.2,30.10,South,176,0.0,0.0,74,0.00,,,0.00,WeatherDisplay:10.37,2013-06-06 04:32:00,
2013-06-06 00:37:00,55.0,46.9,30.09,South,176,0.0,0.0,74,0.00,,,0.00,WeatherDisplay:10.37,2013-06-06 04:37:00,
2013-06-06 00:42:00,54.8,47.4,30.09,South,176,0.0,0.0,76,0.00,,,0.00,WeatherDisplay:10.37,2013-06-06 04:42:00,
2013-06-06 00:47:00,54.6,46.5,30.09,South,176,0.0,0.0,74,0.00,,,0.00,WeatherDisplay:10.37,2013-06-06 04:47:00,
2013-06-06 00:52:00,54.6,47.2,30.09,South,176,0.0,0.0,76,0.00,,,0.00,WeatherDisplay:10.37,2013-06-06 04:52:00,
2013-06-06 00:57:00,54.5,47.4,30.09,South,176,0.0,0.0,77,0.00,,,0.00,WeatherDisplay:10.37,2013-06-06 04:57:00,
2013-06-06 01:02:00,54.5,46.7,30.09,South,176,0.0,0.0,75,0.00,,,0.00,WeatherDisplay:10.37,2013-06-06 05:02:00,
2013-06-06 01:07:00,54.7,46.9,30.09,South,176,0.0,0.0,75,0.00,,,0.00,WeatherDisplay:10.37,2013-06-06 05:07:00,
2013-06-06 01:12:00,54.9,46.8,30.09,South,176,0.0,0.0,74,0.00,,,0.00,WeatherDisplay:10.37,2013-06-06 05:12:00,
2013-06-06 01:17:00,54.9,46.8,30.08,South,176,0.0,0.0,74,0.00,,,0.00,WeatherDisplay:10.37,2013-06-06 05:17:00,
2013-06-06 01:22:00,55.0,46.9,30.08,NNE,27,1.1,0.0,74,0.00,,,0.00,WeatherDisplay:10.37,2013-06-06 05:22:00,
2013-06-06 01:27:00,55.1,46.6,30.08,NNE,25,0.0,0.0,73,0.00,,,0.00,WeatherDisplay:10.37,2013-06-06 05:27:00,
2013-06-06 01:32:00,55.1,46.6,30.08,NNE,19,0.0,0.1,73,0.00,,,0.00,WeatherDisplay:10.37,2013-06-06 05:32:00,
2013-06-06 01:37:00,55.0,46.9,30.08,NNE,19,0.0,0.0,74,0.00,,,0.00,WeatherDisplay:10.37,2013-06-06 05:37:00,
2013-06-06 01:43:00,54.9,46.8,30.08,NNE,18,0.0,0.0,74,0.00,,,0.00,WeatherDisplay:10.37,2013-06-06 05:43:00,
2013-06-06 01:48:00,54.7,46.6,30.07,NNE,18,0.0,0.1,74,0.00,,,0.00,WeatherDisplay:10.37,2013-06-06 05:48:00,
2013-06-06 01:53:00,54.6,46.8,30.07,NNE,15,0.0,0.0,75,0.00,,,0.00,WeatherDisplay:10.37,2013-06-06 05:53:00,
2013-06-06 01:58:00,54.5,46.7,30.07,NNE,15,1.1,0.0,75,0.00,,,0.00,WeatherDisplay:10.37,2013-06-06 05:58:00,
2013-06-06 02:03:00,54.4,46.6,30.07,NNE,14,0.0,0.0,75,0.00,,,0.00,WeatherDisplay:10.37,2013-06-06 06:03:00,
2013-06-06 02:08:00,54.3,46.9,30.07,NNE,15,0.0,0.0,76,0.00,,,0.00,WeatherDisplay:10.37,2013-06-06 06:08:00,
2013-06-06 02:13:00,54.2,47.1,30.07,NNW,333,0.0,0.0,77,0.00,,,0.00,WeatherDisplay:10.37,2013-06-06 06:13:00,
2013-06-06 02:18:00,54.1,47.0,30.07,WSW,245,1.1,0.0,77,0.00,,,0.00,WeatherDisplay:10.37,2013-06-06 06:18:00,
2013-06-06 02:23:00,54.2,47.1,30.07,NE,34,0.0,0.0,77,0.00,,,0.00,WeatherDisplay:10.37,2013-06-06 06:23:00,
2013-06-06 02:28:00,54.3,47.2,30.07,North,353,1.1,1.1,77,0.00,,,0.00,WeatherDisplay:10.37,2013-06-06 06:28:00,
2013-06-06 02:33:00,54.5,47.1,30.07,NNE,23,1.1,1.1,76,0.00,,,0.00,WeatherDisplay:10.37,2013-06-06 06:33:00,
2013-06-06 02:38:00,54.6,47.2,30.07,WNW,291,1.1,0.0,76,0.00,,,0.00,WeatherDisplay:10.37,2013-06-06 06:38:00,
2013-06-06 02:43:00,54.7,47.3,30.07,East,82,0.0,0.0,76,0.00,,,0.00,WeatherDisplay:10.37,2013-06-06 06:43:00,
2013-06-06 02:48:00,54.7,46.9,30.07,ENE,60,0.0,0.0,75,0.00,,,0.00,WeatherDisplay:10.37,2013-06-06 06:48:00,
2013-06-06 02:53:00,54.8,47.0,30.07,SE,131,0.0,0.0,75,0.00,,,0.00,WeatherDisplay:10.37,2013-06-06 06:53:00,
2013-06-06 02:58:00,54.8,47.0,30.07,West,267,0.0,0.0,75,0.00,,,0.00,WeatherDisplay:10.37,2013-06-06 06:58:00,
2013-06-06 03:03:00,54.7,47.6,30.06,WSW,243,0.0,0.0,77,0.00,,,0.00,WeatherDisplay:10.37,2013-06-06 07:03:00,
2013-06-06 03:08:00,54.7,47.6,30.06,SW,215,0.0,0.0,77,0.00,,,0.00,WeatherDisplay:10.37,2013-06-06 07:08:00,
2013-06-06 03:13:00,54.6,47.2,30.06,WSW,246,0.0,0.0,76,0.00,,,0.00,WeatherDisplay:10.37,2013-06-06 07:13:00,
2013-06-06 03:18:00,54.7,47.3,30.05,East,96,1.1,1.1,76,0.00,,,0.00,WeatherDisplay:10.37,2013-06-06 07:18:00,
2013-06-06 03:23:00,54.9,47.5,30.05,SE,136,1.0,0.0,76,0.00,,,0.00,WeatherDisplay:10.37,2013-06-06 07:23:00,
2013-06-06 03:28:00,55.0,47.2,30.06,NNW,343,0.0,0.0,75,0.00,,,0.00,WeatherDisplay:10.37,2013-06-06 07:28:00,
2013-06-06 03:33:00,55.0,47.2,30.06,NE,40,0.0,0.0,75,0.00,,,0.00,WeatherDisplay:10.37,2013-06-06 07:33:00,
2013-06-06 03:38:00,55.1,47.3,30.05,SE,137,0.0,0.0,75,0.00,,,0.00,WeatherDisplay:10.37,2013-06-06 07:38:00,
2013-06-06 03:43:00,55.1,47.3,30.05,NW,316,0.0,0.0,75,0.00,,,0.00,WeatherDisplay:10.37,2013-06-06 07:43:00,
2013-06-06 03:48:00,55.1,47.3,30.05,NNE,23,1.1,0.0,75,0.00,,,0.00,WeatherDisplay:10.37,2013-06-06 07:48:00,
2013-06-06 03:53:00,55.1,47.7,30.05,NNE,23,0.0,0.0,76,0.00,,,0.00,WeatherDisplay:10.37,2013-06-06 07:53:00,
2013-06-06 03:58:00,54.9,47.5,30.05,NNE,23,0.0,0.0,76,0.00,,,0.00,WeatherDisplay:10.37,2013-06-06 07:58:00,
2013-06-06 04:03:00,54.8,47.4,30.05,East,95,0.0,0.0,76,0.00,,,0.00,WeatherDisplay:10.37,2013-06-06 08:03:00,
2013-06-06 04:08:00,54.8,47.7,30.05,NE,45,0.0,0.0,77,0.00,,,0.00,WeatherDisplay:10.37,2013-06-06 08:08:00,
2013-06-06 04:13:00,54.7,47.6,30.04,NE,51,1.1,0.0,77,0.00,,,0.00,WeatherDisplay:10.37,2013-06-06 08:13:00,
2013-06-06 04:18:00,54.6,47.5,30.04,WNW,295,0.0,0.0,77,0.00,,,0.00,WeatherDisplay:10.37,2013-06-06 08:18:00,
2013-06-06 04:23:00,54.5,47.4,30.04,WNW,295,0.0,0.0,77,0.00,,,0.00,WeatherDisplay:10.37,2013-06-06 08:23:00,
2013-06-06 04:28:00,54.5,47.4,30.03,NNE,13,3.5,3.5,77,0.00,,,0.00,WeatherDisplay:10.37,2013-06-06 08:28:00,
2013-06-06 04:33:00,54.5,47.4,30.03,SSW,195,0.0,0.0,77,0.00,,,0.00,WeatherDisplay:10.37,2013-06-06 08:33:00,
2013-06-06 04:38:00,54.5,47.4,30.03,East,98,1.1,1.1,77,0.00,,,0.00,WeatherDisplay:10.37,2013-06-06 08:38:00,
2013-06-06 04:43:00,54.6,47.2,30.03,NNW,338,1.1,1.1,76,0.00,,,0.00,WeatherDisplay:10.37,2013-06-06 08:43:00,
2013-06-06 04:48:00,54.7,47.6,30.03,NNW,336,1.1,0.0,77,0.00,,,0.00,WeatherDisplay:10.37,2013-06-06 08:48:00,
2013-06-06 04:53:00,54.7,47.3,30.02,SE,127,0.0,0.0,76,0.00,,,0.00,WeatherDisplay:10.37,2013-06-06 08:53:00,
2013-06-06 04:58:00,54.7,47.3,30.02,SW,225,0.0,0.0,76,0.00,,,0.00,WeatherDisplay:10.37,2013-06-06 08:58:00,
2013-06-06 05:03:00,54.7,47.3,30.02,SE,128,0.0,0.0,76,0.00,CLR,,0.00,WeatherDisplay:10.37,2013-06-06 09:03:00,
2013-06-06 05:08:00,54.7,47.6,30.01,WSW,248,1.1,1.1,77,0.00,CLR,,0.00,WeatherDisplay:10.37,2013-06-06 09:08:00,
2013-06-06 05:13:00,54.7,47.6,30.01,WSW,248,0.0,0.0,77,0.00,CLR,,0.00,WeatherDisplay:10.37,2013-06-06 09:13:00,
2013-06-06 05:18:00,54.8,47.7,30.01,WSW,241,0.0,0.0,77,0.00,CLR,,0.00,WeatherDisplay:10.37,2013-06-06 09:18:00,
2013-06-06 05:23:00,54.7,48.0,30.01,East,100,1.0,0.0,78,0.00,CLR,,0.00,WeatherDisplay:10.37,2013-06-06 09:23:00,
2013-06-06 05:28:00,54.7,48.3,30.00,SE,132,2.3,2.3,79,0.00,CLR,,0.00,WeatherDisplay:10.37,2013-06-06 09:28:00,
2013-06-06 05:33:00,54.6,48.6,30.00,SW,225,1.1,0.0,80,0.00,CLR,,0.00,WeatherDisplay:10.37,2013-06-06 09:33:00,
2013-06-06 05:38:00,54.6,48.6,30.00,West,264,1.1,0.0,80,0.00,CLR,,0.00,WeatherDisplay:10.37,2013-06-06 09:38:00,
2013-06-06 05:43:00,54.4,48.4,30.00,West,265,0.0,0.0,80,0.00,CLR,,0.00,WeatherDisplay:10.37,2013-06-06 09:43:00,
2013-06-06 05:48:00,54.4,48.7,30.00,West,264,0.0,0.0,81,0.00,CLR,,0.00,WeatherDisplay:10.37,2013-06-06 09:48:00,
2013-06-06 05:53:00,54.4,48.7,30.00,South,187,0.0,0.0,81,0.00,CLR,,0.00,WeatherDisplay:10.37,2013-06-06 09:53:00,
2013-06-06 05:58:00,54.4,48.7,30.00,South,187,0.0,0.0,81,0.00,CLR,,0.00,WeatherDisplay:10.37,2013-06-06 09:58:00,
2013-06-06 06:03:00,54.4,49.0,30.00,South,186,0.0,0.0,82,0.00,,,0.00,WeatherDisplay:10.37,2013-06-06 10:03:00,
2013-06-06 06:08:00,54.3,48.9,30.00,South,187,0.0,0.0,82,0.00,,,0.00,WeatherDisplay:10.37,2013-06-06 10:08:00,
2013-06-06 06:13:00,54.3,49.6,30.00,South,187,0.0,0.0,84,0.00,,,0.00,WeatherDisplay:10.37,2013-06-06 10:13:00,
2013-06-06 06:18:00,54.3,49.6,30.00,SSE,159,0.0,0.0,84,0.00,,,0.00,WeatherDisplay:10.37,2013-06-06 10:18:00,
2013-06-06 06:23:00,54.2,49.5,30.00,SSE,159,0.0,0.0,84,0.00,,,0.00,WeatherDisplay:10.37,2013-06-06 10:23:00,
2013-06-06 06:28:00,54.3,49.6,29.99,WSW,242,0.0,0.0,84,0.00,,,0.00,WeatherDisplay:10.37,2013-06-06 10:28:00,
2013-06-06 06:33:00,54.3,49.6,29.99,SSE,159,0.0,0.0,84,0.00,,,0.00,WeatherDisplay:10.37,2013-06-06 10:33:00,
2013-06-06 06:38:00,54.4,49.7,29.99,SSE,159,0.0,0.0,84,0.00,,,0.00,WeatherDisplay:10.37,2013-06-06 10:38:00,
2013-06-06 06:43:00,54.6,49.9,29.99,ESE,115,0.0,0.0,84,0.00,,,0.00,WeatherDisplay:10.37,2013-06-06 10:43:00,
2013-06-06 06:48:00,54.8,50.1,29.99,East,88,1.1,0.0,84,0.00,,,0.00,WeatherDisplay:10.37,2013-06-06 10:48:00,
2013-06-06 06:53:00,55.1,50.4,29.99,SE,139,1.0,1.0,84,0.00,,,0.00,WeatherDisplay:10.37,2013-06-06 10:53:00,
2013-06-06 06:58:00,55.4,50.6,29.99,SE,139,0.0,0.0,84,0.00,,,0.00,WeatherDisplay:10.37,2013-06-06 10:58:00,
2013-06-06 07:03:00,55.7,50.9,29.99,SE,140,0.0,0.0,84,0.00,,,0.00,WeatherDisplay:10.37,2013-06-06 11:03:00,
2013-06-06 07:08:00,55.8,50.7,29.99,SE,139,0.0,0.0,83,0.00,,,0.00,WeatherDisplay:10.37,2013-06-06 11:08:00,
2013-06-06 07:13:00,56.0,50.9,29.99,SE,139,0.0,0.0,83,0.00,,,0.00,WeatherDisplay:10.37,2013-06-06 11:13:00,
2013-06-06 07:18:00,56.1,51.3,29.99,East,91,1.1,0.0,84,0.00,,,0.00,WeatherDisplay:10.37,2013-06-06 11:18:00,
2013-06-06 07:23:00,56.1,51.0,29.99,East,91,1.1,0.0,83,0.00,,,0.00,WeatherDisplay:10.37,2013-06-06 11:23:00,
2013-06-06 07:28:00,56.2,51.1,29.99,East,91,0.0,0.0,83,0.00,,,0.00,WeatherDisplay:10.37,2013-06-06 11:28:00,
2013-06-06 07:33:00,56.3,51.5,30.00,SE,141,0.0,0.0,84,0.00,,,0.00,WeatherDisplay:10.37,2013-06-06 11:33:00,
2013-06-06 07:38:00,56.4,51.6,30.00,North,353,2.3,2.3,84,0.00,,,0.00,WeatherDisplay:10.37,2013-06-06 11:38:00,
2013-06-06 07:43:00,56.4,51.9,30.01,South,172,0.0,0.0,85,0.00,,,0.00,WeatherDisplay:10.37,2013-06-06 11:43:00,
2013-06-06 07:53:00,56.3,51.8,30.02,ESE,114,1.1,1.1,85,0.01,RA,,0.02,WeatherDisplay:10.37,2013-06-06 11:53:00,
2013-06-06 07:58:00,55.9,52.1,30.02,ENE,65,0.0,0.0,87,0.07,RA,,0.08,WeatherDisplay:10.37,2013-06-06 11:58:00,
2013-06-06 08:03:00,55.3,51.8,30.02,WNW,300,0.0,0.0,88,0.11,RA,,0.11,WeatherDisplay:10.37,2013-06-06 12:03:00,
2013-06-06 08:08:00,55.0,51.5,30.02,WNW,299,0.0,0.0,88,0.12,RA,,0.13,WeatherDisplay:10.37,2013-06-06 12:08:00,
2013-06-06 08:13:00,54.7,50.9,30.03,WNW,299,0.0,0.0,87,0.17,RA,,0.17,WeatherDisplay:10.37,2013-06-06 12:13:00,
2013-06-06 08:18:00,54.7,50.9,30.03,WNW,299,0.0,0.0,87,0.19,RA,,0.19,WeatherDisplay:10.37,2013-06-06 12:18:00,
2013-06-06 08:23:00,54.6,50.5,30.03,WNW,300,0.0,0.0,86,0.19,RA,,0.19,WeatherDisplay:10.37,2013-06-06 12:23:00,
2013-06-06 08:28:00,54.6,50.5,30.03,WNW,300,0.0,0.0,86,0.19,CLR,,0.19,WeatherDisplay:10.37,2013-06-06 12:28:00,
2013-06-06 08:33:00,54.6,50.5,30.03,WNW,300,0.0,0.0,86,0.20,RA,,0.20,WeatherDisplay:10.37,2013-06-06 12:33:00,
2013-06-06 08:38:00,54.6,50.2,30.03,WNW,291,0.0,0.0,85,0.21,RA,,0.21,WeatherDisplay:10.37,2013-06-06 12:38:00,
2013-06-06 08:43:00,54.5,50.4,30.03,SW,219,0.0,0.0,86,0.23,RA,,0.24,WeatherDisplay:10.37,2013-06-06 12:43:00,
2013-06-06 08:48:00,54.5,50.1,30.03,SSW,193,0.0,0.0,85,0.29,RA,,0.29,WeatherDisplay:10.37,2013-06-06 12:48:00,
2013-06-06 08:53:00,54.5,50.1,30.03,SSE,148,0.0,0.0,85,0.30,RA,,0.32,WeatherDisplay:10.37,2013-06-06 12:53:00,
2013-06-06 08:58:00,54.4,50.0,30.03,SE,146,0.0,0.0,85,0.27,RA,,0.34,WeatherDisplay:10.37,2013-06-06 12:58:00,
2013-06-06 09:03:00,54.5,50.1,30.02,SE,146,0.0,0.0,85,0.26,RA,,0.38,WeatherDisplay:10.37,2013-06-06 13:03:00,
2013-06-06 09:08:00,54.6,49.9,30.02,SE,146,0.0,0.0,84,0.28,RA,,0.40,WeatherDisplay:10.37,2013-06-06 13:08:00,
2013-06-06 09:13:00,54.7,50.0,30.03,SE,146,0.0,0.0,84,0.24,RA,,0.41,WeatherDisplay:10.37,2013-06-06 13:13:00,
2013-06-06 09:18:00,54.7,50.0,30.02,NE,40,0.0,0.0,84,0.24,RA,,0.43,WeatherDisplay:10.37,2013-06-06 13:18:00,
2013-06-06 09:23:00,54.8,50.1,30.02,ESE,116,0.0,0.0,84,0.25,RA,,0.44,WeatherDisplay:10.37,2013-06-06 13:23:00,
2013-06-06 09:28:00,54.9,50.2,30.02,SSE,150,0.0,0.0,84,0.26,RA,,0.45,WeatherDisplay:10.37,2013-06-06 13:28:00,
2013-06-06 09:33:00,54.9,50.2,30.02,SE,136,0.0,0.0,84,0.28,RA,,0.48,WeatherDisplay:10.37,2013-06-06 13:33:00,
2013-06-06 09:38:00,55.0,49.9,30.01,ESE,117,0.0,0.0,83,0.28,RA,,0.49,WeatherDisplay:10.37,2013-06-06 13:38:00,
2013-06-06 09:43:00,55.1,50.0,30.01,SSE,165,0.0,0.0,83,0.27,RA,,0.50,WeatherDisplay:10.37,2013-06-06 13:43:00,
2013-06-06 09:48:00,55.3,50.2,30.01,SSE,155,0.0,0.0,83,0.22,RA,,0.51,WeatherDisplay:10.37,2013-06-06 13:48:00,
2013-06-06 09:53:00,55.5,50.4,30.01,SE,139,1.1,1.1,83,0.20,RA,,0.52,WeatherDisplay:10.37,2013-06-06 13:53:00,
2013-06-06 09:58:00,55.7,50.6,30.01,SW,218,0.0,0.0,83,0.18,RA,,0.52,WeatherDisplay:10.37,2013-06-06 13:58:00,
2013-06-06 10:03:00,55.9,50.8,30.00,WSW,253,1.1,0.0,83,0.16,RA,,0.53,WeatherDisplay:10.37,2013-06-06 14:03:00,
2013-06-06 10:08:00,56.1,50.7,30.00,East,83,1.1,1.1,82,0.13,RA,,0.53,WeatherDisplay:10.37,2013-06-06 14:08:00,
2013-06-06 10:13:00,56.4,51.0,30.00,South,181,1.0,1.0,82,0.12,CLR,,0.53,WeatherDisplay:10.37,2013-06-06 14:13:00,
2013-06-06 10:18:00,56.6,51.2,30.00,ESE,105,2.3,2.3,82,0.11,RA,,0.54,WeatherDisplay:10.37,2013-06-06 14:18:00,
2013-06-06 10:23:00,56.8,51.4,30.00,SE,134,1.1,1.1,82,0.11,RA,,0.55,WeatherDisplay:10.37,2013-06-06 14:23:00,
2013-06-06 10:28:00,56.9,51.5,30.00,East,81,3.5,3.5,82,0.10,RA,,0.55,WeatherDisplay:10.37,2013-06-06 14:28:00,
2013-06-06 10:33:00,57.0,51.6,30.00,ENE,65,5.8,5.8,82,0.07,CLR,,0.56,WeatherDisplay:10.37,2013-06-06 14:33:00,
2013-06-06 10:38:00,57.2,51.8,30.00,NNE,30,1.0,1.0,82,0.07,RA,,0.56,WeatherDisplay:10.37,2013-06-06 14:38:00,
2013-06-06 10:43:00,57.2,51.8,30.00,ENE,75,0.0,0.0,82,0.06,RA,,0.56,WeatherDisplay:10.37,2013-06-06 14:43:00,
2013-06-06 10:48:00,57.3,52.2,30.00,SSE,155,2.3,2.3,83,0.06,RA,,0.57,WeatherDisplay:10.37,2013-06-06 14:48:00,
2013-06-06 10:53:00,57.4,52.3,30.00,SE,139,1.1,1.1,83,0.05,RA,,0.57,WeatherDisplay:10.37,2013-06-06 14:53:00,
2013-06-06 10:58:00,57.4,52.3,30.00,SE,138,4.6,4.6,83,0.06,RA,,0.58,WeatherDisplay:10.37,2013-06-06 14:58:00,
2013-06-06 11:03:00,57.5,52.4,30.00,ESE,114,2.3,2.3,83,0.06,RA,,0.59,WeatherDisplay:10.37,2013-06-06 15:03:00,
2013-06-06 11:08:00,57.5,52.4,30.00,ENE,69,3.5,3.5,83,0.06,RA,,0.59,WeatherDisplay:10.37,2013-06-06 15:08:00,
2013-06-06 11:13:00,57.3,52.2,30.00,SSE,151,2.3,2.3,83,0.07,RA,,0.60,WeatherDisplay:10.37,2013-06-06 15:13:00,
2013-06-06 11:18:00,57.3,52.2,30.00,West,259,2.3,2.3,83,0.07,RA,,0.61,WeatherDisplay:10.37,2013-06-06 15:18:00,
2013-06-06 11:23:00,57.3,52.2,30.00,SW,236,0.0,0.0,83,0.07,RA,,0.62,WeatherDisplay:10.37,2013-06-06 15:23:00,
2013-06-06 11:28:00,57.2,52.4,30.00,SSW,195,3.5,3.5,84,0.08,RA,,0.63,WeatherDisplay:10.37,2013-06-06 15:28:00,
2013-06-06 11:33:00,57.1,52.3,30.00,SSW,211,2.3,2.4,84,0.10,RA,,0.66,WeatherDisplay:10.37,2013-06-06 15:33:00,
2013-06-06 11:39:00,57.0,51.9,30.00,West,264,3.5,3.5,83,0.12,RA,,0.69,WeatherDisplay:10.37,2013-06-06 15:39:00,
2013-06-06 11:44:00,57.0,51.9,30.00,South,186,4.0,4.0,83,0.14,RA,,0.71,WeatherDisplay:10.37,2013-06-06 15:44:00,
2013-06-06 11:49:00,56.8,51.7,30.00,NW,314,4.6,4.6,83,0.16,RA,,0.74,WeatherDisplay:10.37,2013-06-06 15:49:00,
2013-06-06 11:54:00,56.8,51.7,30.00,ESE,120,3.5,3.5,83,0.18,RA,,0.76,WeatherDisplay:10.37,2013-06-06 15:54:00,
2013-06-06 11:59:00,56.8,51.7,30.00,SSE,160,2.3,2.3,83,0.20,RA,,0.78,WeatherDisplay:10.37,2013-06-06 15:59:00,
2013-06-06 12:04:00,56.7,51.6,30.00,WSW,238,5.0,5.0,83,0.20,RA,,0.79,WeatherDisplay:10.37,2013-06-06 16:04:00,
2013-06-06 12:09:00,56.7,51.6,30.00,West,270,2.3,2.3,83,0.21,RA,,0.80,WeatherDisplay:10.37,2013-06-06 16:09:00,
2013-06-06 12:14:00,56.6,51.5,29.99,SW,218,3.5,3.5,83,0.22,RA,,0.82,WeatherDisplay:10.37,2013-06-06 16:14:00,
2013-06-06 12:19:00,56.5,51.4,29.99,ESE,117,2.3,2.3,83,0.23,RA,,0.85,WeatherDisplay:10.37,2013-06-06 16:19:00,
2013-06-06 12:24:00,56.5,51.4,29.99,East,90,3.5,3.5,83,0.25,RA,,0.87,WeatherDisplay:10.37,2013-06-06 16:24:00,
2013-06-06 12:29:00,56.5,51.4,29.99,ESE,122,1.1,1.1,83,0.25,RA,,0.88,WeatherDisplay:10.37,2013-06-06 16:29:00,
2013-06-06 12:34:00,56.5,51.4,29.99,ESE,120,3.5,3.5,83,0.23,RA,,0.89,WeatherDisplay:10.37,2013-06-06 16:34:00,
2013-06-06 12:39:00,56.5,51.4,29.99,SE,141,0.0,0.0,83,0.21,RA,,0.90,WeatherDisplay:10.37,2013-06-06 16:39:00,
2013-06-06 12:44:00,56.5,51.4,29.99,East,101,1.1,1.1,83,0.21,RA,,0.92,WeatherDisplay:10.37,2013-06-06 16:44:00,
2013-06-06 12:49:00,56.4,51.3,29.99,SSW,209,1.1,0.0,83,0.19,RA,,0.93,WeatherDisplay:10.37,2013-06-06 16:49:00,
2013-06-06 12:54:00,56.4,51.3,29.99,WNW,290,2.3,2.3,83,0.18,RA,,0.94,WeatherDisplay:10.37,2013-06-06 16:54:00,
2013-06-06 12:59:00,56.4,51.3,29.99,SE,135,3.5,3.5,83,0.17,RA,,0.95,WeatherDisplay:10.37,2013-06-06 16:59:00,
2013-06-06 13:04:00,56.4,51.3,29.99,ENE,60,2.0,2.0,83,0.17,RA,,0.96,WeatherDisplay:10.37,2013-06-06 17:04:00,
2013-06-06 13:09:00,56.5,51.4,29.98,East,95,2.3,2.3,83,0.17,RA,,0.98,WeatherDisplay:10.37,2013-06-06 17:09:00,
2013-06-06 13:14:00,56.5,51.4,29.98,SSE,158,3.5,3.5,83,0.20,RA,,1.02,WeatherDisplay:10.37,2013-06-06 17:14:00,
2013-06-06 13:19:00,56.5,51.4,29.98,SE,129,2.3,2.3,83,0.23,RA,,1.08,WeatherDisplay:10.37,2013-06-06 17:19:00,
2013-06-06 13:24:00,56.4,51.3,29.98,SE,138,3.5,3.5,83,0.24,RA,,1.11,WeatherDisplay:10.37,2013-06-06 17:24:00,
2013-06-06 13:29:00,56.4,51.3,29.98,ENE,61,3.5,3.5,83,0.24,RA,,1.13,WeatherDisplay:10.37,2013-06-06 17:29:00,
2013-06-06 13:35:00,56.5,51.4,29.97,WSW,239,5.0,5.0,83,0.25,RA,,1.14,WeatherDisplay:10.37,2013-06-06 17:35:00,
2013-06-06 13:40:00,56.5,51.4,29.97,SE,131,3.5,3.5,83,0.25,RA,,1.15,WeatherDisplay:10.37,2013-06-06 17:40:00,
2013-06-06 13:45:00,56.6,51.5,29.97,ENE,69,2.3,2.3,83,0.24,RA,,1.16,WeatherDisplay:10.37,2013-06-06 17:45:00,
2013-06-06 13:50:00,56.7,51.6,29.98,SSE,148,5.8,5.8,83,0.25,RA,,1.18,WeatherDisplay:10.37,2013-06-06 17:50:00,
2013-06-06 13:55:00,56.7,51.6,29.98,South,191,2.3,2.3,83,0.27,RA,,1.22,WeatherDisplay:10.37,2013-06-06 17:55:00,
2013-06-06 14:00:00,56.7,51.6,29.98,ESE,110,3.5,3.5,83,0.30,RA,,1.26,WeatherDisplay:10.37,2013-06-06 18:00:00,
2013-06-06 14:05:00,56.7,51.6,29.98,West,259,3.5,3.5,83,0.34,RA,,1.31,WeatherDisplay:10.37,2013-06-06 18:05:00,
2013-06-06 14:10:00,56.7,51.6,29.97,NE,44,6.0,6.0,83,0.37,RA,,1.34,WeatherDisplay:10.37,2013-06-06 18:10:00,
2013-06-06 14:15:00,56.6,51.5,29.97,SSE,156,3.5,3.5,83,0.34,RA,,1.36,WeatherDisplay:10.37,2013-06-06 18:15:00,
2013-06-06 14:20:00,56.6,51.5,29.97,SSW,208,1.1,1.8,83,0.30,RA,,1.37,WeatherDisplay:10.37,2013-06-06 18:20:00,
2013-06-06 14:25:00,56.6,51.5,29.97,NNW,331,3.0,3.0,83,0.26,RA,,1.37,WeatherDisplay:10.37,2013-06-06 18:25:00,
2013-06-06 14:30:00,56.6,51.5,29.97,WSW,246,4.6,4.6,83,0.26,RA,,1.38,WeatherDisplay:10.37,2013-06-06 18:30:00,
2013-06-06 14:35:00,56.7,51.6,29.97,SE,134,2.3,2.3,83,0.25,RA,,1.40,WeatherDisplay:10.37,2013-06-06 18:35:00,
2013-06-06 14:40:00,56.7,51.6,29.97,East,84,2.0,2.0,83,0.27,RA,,1.42,WeatherDisplay:10.37,2013-06-06 18:40:00,
2013-06-06 14:45:00,56.6,51.5,29.97,SSW,195,3.5,3.5,83,0.27,RA,,1.43,WeatherDisplay:10.37,2013-06-06 18:45:00,
2013-06-06 14:50:00,56.6,51.5,29.97,SSE,148,2.3,2.3,83,0.26,RA,,1.44,WeatherDisplay:10.37,2013-06-06 18:50:00,
2013-06-06 14:55:00,56.5,51.4,29.97,South,179,4.6,4.6,83,0.23,RA,,1.45,WeatherDisplay:10.37,2013-06-06 18:55:00,
2013-06-06 15:00:00,56.5,51.4,29.97,ENE,57,1.1,0.0,83,0.18,RA,,1.45,WeatherDisplay:10.37,2013-06-06 19:00:00,
2013-06-06 15:05:00,56.5,51.4,29.97,ESE,114,1.1,1.1,83,0.16,RA,,1.47,WeatherDisplay:10.37,2013-06-06 19:05:00,
2013-06-06 15:10:00,56.5,51.4,29.97,SSE,149,2.3,2.3,83,0.14,RA,,1.48,WeatherDisplay:10.37,2013-06-06 19:10:00,
2013-06-06 15:15:00,56.6,51.5,29.97,SE,129,2.3,2.3,83,0.13,RA,,1.49,WeatherDisplay:10.37,2013-06-06 19:15:00,
2013-06-06 15:20:00,56.6,51.5,29.97,ENE,75,2.3,2.3,83,0.14,RA,,1.51,WeatherDisplay:10.37,2013-06-06 19:20:00,
2013-06-06 15:25:00,56.6,51.5,29.97,East,96,1.1,1.1,83,0.16,RA,,1.53,WeatherDisplay:10.37,2013-06-06 19:25:00,
2013-06-06 15:30:00,56.5,51.4,29.97,East,89,3.5,3.5,83,0.17,RA,,1.55,WeatherDisplay:10.37,2013-06-06 19:30:00,
2013-06-06 15:34:00,56.5,51.4,29.98,WSW,253,3.5,3.5,83,0.17,RA,,1.56,WeatherDisplay:10.37,2013-06-06 19:34:00,
2013-06-06 15:39:00,56.5,51.4,29.98,SE,127,2.3,2.3,83,0.16,RA,,1.59,WeatherDisplay:10.37,2013-06-06 19:39:00,
2013-06-06 15:44:00,56.5,51.4,29.97,SE,145,1.1,0.0,83,0.18,RA,,1.61,WeatherDisplay:10.37,2013-06-06 19:44:00,
2013-06-06 15:49:00,56.4,51.3,29.97,East,93,0.0,0.0,83,0.19,RA,,1.64,WeatherDisplay:10.37,2013-06-06 19:49:00,
2013-06-06 16:04:00,56.3,51.2,29.97,SSW,207,4.0,4.0,83,0.33,RA,,1.79,WeatherDisplay:10.37,2013-06-06 20:04:00,
2013-06-06 16:09:00,56.2,51.1,29.97,East,91,4.6,4.6,83,0.36,RA,,1.85,WeatherDisplay:10.37,2013-06-06 20:09:00,
2013-06-06 16:14:00,56.2,51.1,29.97,East,84,4.0,4.0,83,0.40,RA,,1.90,WeatherDisplay:10.37,2013-06-06 20:14:00,
2013-06-06 16:19:00,56.1,51.0,29.96,SE,141,2.3,0.0,83,0.43,RA,,1.93,WeatherDisplay:10.37,2013-06-06 20:19:00,
2013-06-06 16:24:00,56.1,51.0,29.96,WSW,246,3.5,3.5,83,0.43,RA,,1.95,WeatherDisplay:10.37,2013-06-06 20:24:00,
2013-06-06 16:29:00,56.1,51.0,29.96,East,79,3.5,3.5,83,0.42,RA,,1.98,WeatherDisplay:10.37,2013-06-06 20:29:00,
2013-06-06 16:34:00,56.1,51.0,29.96,SE,131,1.1,1.1,83,0.43,RA,,1.99,WeatherDisplay:10.37,2013-06-06 20:34:00,
2013-06-06 16:39:00,56.1,51.0,29.96,ESE,120,3.5,3.5,83,0.43,RA,,2.02,WeatherDisplay:10.37,2013-06-06 20:39:00,
2013-06-06 16:44:00,56.1,51.0,29.96,East,94,2.3,2.3,83,0.45,RA,,2.06,WeatherDisplay:10.37,2013-06-06 20:44:00,
2013-06-06 16:49:00,56.1,51.0,29.96,NE,47,9.2,9.2,83,0.45,RA,,2.08,WeatherDisplay:10.37,2013-06-06 20:49:00,
2013-06-06 16:54:00,56.2,51.1,29.97,SSE,149,1.1,1.2,83,0.45,RA,,2.11,WeatherDisplay:10.37,2013-06-06 20:54:00,
2013-06-06 16:59:00,56.2,51.1,29.97,ENE,64,1.1,0.0,83,0.43,RA,,2.13,WeatherDisplay:10.37,2013-06-06 20:59:00,
2013-06-06 17:04:00,56.2,51.1,29.97,SE,141,0.0,0.0,83,0.36,RA,,2.16,WeatherDisplay:10.37,2013-06-06 21:04:00,
2013-06-06 17:10:00,56.2,51.1,29.97,WNW,282,1.1,1.1,83,0.37,RA,,2.21,WeatherDisplay:10.37,2013-06-06 21:10:00,
2013-06-06 17:15:00,56.2,51.1,29.96,WSW,243,1.1,0.0,83,0.34,RA,,2.24,WeatherDisplay:10.37,2013-06-06 21:15:00,
2013-06-06 17:20:00,56.3,51.2,29.96,East,88,2.3,2.3,83,0.33,RA,,2.26,WeatherDisplay:10.37,2013-06-06 21:20:00,
2013-06-06 17:25:00,56.3,51.2,29.96,ESE,105,1.1,1.1,83,0.35,RA,,2.30,WeatherDisplay:10.37,2013-06-06 21:25:00,
2013-06-06 17:30:00,56.3,51.2,29.96,NNW,347,1.1,1.1,83,0.35,RA,,2.33,WeatherDisplay:10.37,2013-06-06 21:30:00,
2013-06-06 17:35:00,56.3,51.2,29.96,South,174,4.0,4.0,83,0.36,RA,,2.35,WeatherDisplay:10.37,2013-06-06 21:35:00,
2013-06-06 17:40:00,56.1,51.0,29.96,SE,127,11.5,11.5,83,0.37,RA,,2.39,WeatherDisplay:10.37,2013-06-06 21:40:00,
2013-06-06 17:45:00,55.9,51.1,29.95,West,267,8.1,8.1,84,0.36,RA,,2.42,WeatherDisplay:10.37,2013-06-06 21:45:00,
2013-06-06 17:50:00,55.7,50.9,29.95,East,81,3.5,3.5,84,0.36,RA,,2.45,WeatherDisplay:10.37,2013-06-06 21:50:00,
2013-06-06 17:55:00,55.5,50.7,29.96,East,101,4.6,4.6,84,0.36,RA,,2.47,WeatherDisplay:10.37,2013-06-06 21:55:00,
2013-06-06 18:00:00,55.3,50.5,29.96,North,6,3.5,3.5,84,0.35,RA,,2.49,WeatherDisplay:10.37,2013-06-06 22:00:00,
2013-06-06 18:05:00,55.1,50.4,29.95,NE,53,3.5,3.5,84,0.34,RA,,2.50,WeatherDisplay:10.37,2013-06-06 22:05:00,
2013-06-06 18:10:00,55.1,50.4,29.95,SE,127,2.3,2.3,84,0.30,RA,,2.51,WeatherDisplay:10.37,2013-06-06 22:10:00,
2013-06-06 18:15:00,55.0,50.3,29.95,NNW,333,1.1,0.0,84,0.28,RA,,2.52,WeatherDisplay:10.37,2013-06-06 22:15:00,
2013-06-06 18:20:00,55.0,50.3,29.95,ENE,70,2.3,2.3,84,0.27,RA,,2.53,WeatherDisplay:10.37,2013-06-06 22:20:00,
2013-06-06 18:25:00,54.9,50.2,29.95,ESE,103,1.1,1.1,84,0.23,RA,,2.54,WeatherDisplay:10.37,2013-06-06 22:25:00,
2013-06-06 18:30:00,54.7,50.0,29.95,ENE,67,3.5,3.5,84,0.22,RA,,2.55,WeatherDisplay:10.37,2013-06-06 22:30:00,
2013-06-06 18:35:00,54.7,50.0,29.95,SSW,197,0.0,0.0,84,0.20,RA,,2.55,WeatherDisplay:10.37,2013-06-06 22:35:00,
2013-06-06 18:40:00,54.6,49.9,29.95,NNE,25,0.0,0.0,84,0.16,CLR,,2.55,WeatherDisplay:10.37,2013-06-06 22:40:00,
2013-06-06 18:45:00,54.6,49.9,29.94,ESE,122,0.0,0.0,84,0.13,CLR,,2.55,WeatherDisplay:10.37,2013-06-06 22:45:00,
2013-06-06 18:50:00,54.6,49.9,29.94,ESE,117,1.1,0.0,84,0.10,CLR,,2.55,WeatherDisplay:10.37,2013-06-06 22:50:00,
2013-06-06 18:55:00,54.5,49.8,29.95,East,89,3.5,3.5,84,0.08,CLR,,2.55,WeatherDisplay:10.37,2013-06-06 22:55:00,
2013-06-06 19:00:00,54.5,49.8,29.95,ESE,122,1.0,1.0,84,0.06,CLR,,2.55,WeatherDisplay:10.37,2013-06-06 23:00:00,
2013-06-06 19:05:00,54.5,49.8,29.94,SE,134,0.0,0.0,84,0.05,CLR,,2.56,WeatherDisplay:10.37,2013-06-06 23:05:00,
2013-06-06 19:10:00,54.6,49.9,29.94,East,96,0.0,0.0,84,0.05,RA,,2.56,WeatherDisplay:10.37,2013-06-06 23:10:00,
2013-06-06 19:15:00,54.5,49.8,29.94,NW,307,0.0,0.0,84,0.04,RA,,2.56,WeatherDisplay:10.37,2013-06-06 23:15:00,
2013-06-06 19:20:00,54.5,49.8,29.94,ENE,58,0.0,0.0,84,0.03,CLR,,2.56,WeatherDisplay:10.37,2013-06-06 23:20:00,
2013-06-06 19:25:00,54.5,49.8,29.94,WSW,242,0.0,0.0,84,0.03,RA,,2.57,WeatherDisplay:10.37,2013-06-06 23:25:00,
2013-06-06 19:30:00,54.5,49.8,29.93,WSW,239,0.0,0.0,84,0.03,RA,,2.58,WeatherDisplay:10.37,2013-06-06 23:30:00,
2013-06-06 19:35:00,54.5,49.8,29.93,SSE,156,2.3,2.3,84,0.03,RA,,2.58,WeatherDisplay:10.37,2013-06-06 23:35:00,
2013-06-06 19:40:00,54.5,49.8,29.93,ESE,105,1.1,0.0,84,0.04,RA,,2.59,WeatherDisplay:10.37,2013-06-06 23:40:00,
2013-06-06 19:45:00,54.5,49.8,29.93,SSE,148,2.3,2.3,84,0.04,RA,,2.59,WeatherDisplay:10.37,2013-06-06 23:45:00,
2013-06-06 19:51:00,54.6,49.9,29.93,SW,228,0.0,0.0,84,0.04,CLR,,2.59,WeatherDisplay:10.37,2013-06-06 23:51:00,
2013-06-06 19:56:00,54.6,49.9,29.93,ESE,119,2.0,2.0,84,0.05,RA,,2.60,WeatherDisplay:10.37,2013-06-06 23:56:00,
2013-06-06 20:01:00,54.6,49.5,29.92,East,79,3.5,3.5,83,0.06,RA,,2.61,WeatherDisplay:10.37,2013-06-07 00:01:00,
2013-06-06 20:06:00,54.7,49.6,29.92,East,84,4.0,4.0,83,0.07,RA,,2.63,WeatherDisplay:10.37,2013-06-07 00:06:00,
2013-06-06 20:11:00,54.7,49.6,29.92,ESE,115,2.3,2.3,83,0.07,RA,,2.63,WeatherDisplay:10.37,2013-06-07 00:11:00,
2013-06-06 20:16:00,54.7,49.6,29.92,ESE,121,2.3,2.3,83,0.07,,,2.63,WeatherDisplay:10.37,2013-06-07 00:16:00,
2013-06-06 20:21:00,54.8,49.7,29.92,ESE,105,0.0,0.0,83,0.06,,,2.63,WeatherDisplay:10.37,2013-06-07 00:21:00,
2013-06-06 20:26:00,54.8,49.7,29.92,East,82,1.1,1.1,83,0.07,RA,,2.64,WeatherDisplay:10.37,2013-06-07 00:26:00,
2013-06-06 20:31:00,54.9,49.8,29.91,SE,145,2.3,0.0,83,0.06,RA,,2.64,WeatherDisplay:10.37,2013-06-07 00:31:00,
2013-06-06 20:36:00,54.8,49.7,29.91,ESE,114,3.5,3.5,83,0.06,,,2.64,WeatherDisplay:10.37,2013-06-07 00:36:00,
2013-06-06 20:41:00,54.9,49.8,29.91,ENE,69,3.0,3.0,83,0.06,RA,,2.65,WeatherDisplay:10.37,2013-06-07 00:41:00,
2013-06-06 20:46:00,54.9,49.8,29.91,ESE,118,3.5,3.5,83,0.06,RA,,2.65,WeatherDisplay:10.37,2013-06-07 00:46:00,
2013-06-06 20:52:00,54.8,49.7,29.90,ENE,57,4.0,4.0,83,0.06,RA,,2.66,WeatherDisplay:10.37,2013-06-07 00:52:00,
2013-06-06 20:57:00,54.8,49.7,29.90,ENE,64,2.3,2.3,83,0.06,RA,,2.66,WeatherDisplay:10.37,2013-06-07 00:57:00,
2013-06-06 21:02:00,54.8,49.7,29.90,ESE,110,2.3,2.3,83,0.05,,,2.66,WeatherDisplay:10.37,2013-06-07 01:02:00,
2013-06-06 21:07:00,54.8,49.7,29.90,North,354,1.1,0.0,83,0.04,RA,,2.67,WeatherDisplay:10.37,2013-06-07 01:07:00,
2013-06-06 21:12:00,54.9,49.8,29.90,East,83,2.3,2.3,83,0.04,RA,,2.67,WeatherDisplay:10.37,2013-06-07 01:12:00,
2013-06-06 21:17:00,54.9,49.8,29.90,SW,233,3.0,3.0,83,0.04,,,2.67,WeatherDisplay:10.37,2013-06-07 01:17:00,
2013-06-06 21:22:00,55.0,49.9,29.90,East,100,3.5,3.5,83,0.04,,,2.67,WeatherDisplay:10.37,2013-06-07 01:22:00,
2013-06-06 21:27:00,55.0,49.9,29.90,SSE,163,1.1,1.4,83,0.03,,,2.67,WeatherDisplay:10.37,2013-06-07 01:27:00,
2013-06-06 21:32:00,55.1,50.0,29.90,East,79,2.3,2.3,83,0.03,,,2.67,WeatherDisplay:10.37,2013-06-07 01:32:00,
2013-06-06 21:37:00,55.1,50.0,29.89,SSE,150,1.1,1.1,83,0.03,,,2.67,WeatherDisplay:10.37,2013-06-07 01:37:00,
2013-06-06 21:42:00,55.1,50.0,29.89,SE,129,1.1,1.1,83,0.02,,,2.67,WeatherDisplay:10.37,2013-06-07 01:42:00,
2013-06-06 21:47:00,55.2,50.1,29.89,East,83,3.5,3.5,83,0.02,,,2.67,WeatherDisplay:10.37,2013-06-07 01:47:00,
2013-06-06 21:53:00,55.3,50.2,29.89,SE,127,1.1,1.1,83,0.01,,,2.67,WeatherDisplay:10.37,2013-06-07 01:53:00,
2013-06-06 21:58:00,55.4,50.3,29.89,SSE,166,1.1,1.1,83,0.02,RA,,2.68,WeatherDisplay:10.37,2013-06-07 01:58:00,
2013-06-06 22:03:00,55.4,50.3,29.89,East,82,2.3,2.3,83,0.02,RA,,2.69,WeatherDisplay:10.37,2013-06-07 02:03:00,
2013-06-06 22:08:00,55.4,50.3,29.89,WSW,242,1.1,0.0,83,0.03,RA,,2.70,WeatherDisplay:10.37,2013-06-07 02:08:00,
2013-06-06 22:13:00,55.5,50.4,29.89,SE,138,3.5,3.5,83,0.03,RA,,2.70,WeatherDisplay:10.37,2013-06-07 02:13:00,
2013-06-06 22:18:00,55.5,50.4,29.88,ESE,108,0.0,0.0,83,0.04,RA,,2.71,WeatherDisplay:10.37,2013-06-07 02:18:00,
2013-06-06 22:23:00,55.6,50.8,29.89,SSW,203,1.0,1.0,84,0.04,RA,,2.71,WeatherDisplay:10.37,2013-06-07 02:23:00,
2013-06-06 22:28:00,55.6,50.8,29.88,South,172,2.0,2.0,84,0.05,RA,,2.72,WeatherDisplay:10.37,2013-06-07 02:28:00,
2013-06-06 22:33:00,55.7,50.9,29.89,SW,231,0.0,0.0,84,0.05,RA,,2.72,WeatherDisplay:10.37,2013-06-07 02:33:00,
2013-06-06 22:38:00,55.7,50.9,29.88,WNW,294,3.5,3.5,84,0.06,RA,,2.73,WeatherDisplay:10.37,2013-06-07 02:38:00,
2013-06-06 22:43:00,55.8,51.0,29.88,NNW,343,1.1,0.0,84,0.07,RA,,2.74,WeatherDisplay:10.37,2013-06-07 02:43:00,
2013-06-06 22:48:00,55.8,51.0,29.88,WSW,238,2.3,2.3,84,0.07,RA,,2.75,WeatherDisplay:10.37,2013-06-07 02:48:00,
2013-06-06 22:53:00,55.8,51.0,29.88,SE,127,1.1,1.1,84,0.08,RA,,2.75,WeatherDisplay:10.37,2013-06-07 02:53:00,
2013-06-06 22:58:00,55.9,51.1,29.88,SW,236,1.1,0.0,84,0.07,RA,,2.75,WeatherDisplay:10.37,2013-06-07 02:58:00,
2013-06-06 23:03:00,55.9,51.1,29.87,South,172,3.5,3.5,84,0.07,RA,,2.76,WeatherDisplay:10.37,2013-06-07 03:03:00,
2013-06-06 23:08:00,55.9,51.1,29.87,SW,231,3.5,3.5,84,0.06,RA,,2.76,WeatherDisplay:10.37,2013-06-07 03:08:00,
2013-06-06 23:13:00,55.9,51.1,29.87,WNW,301,0.0,0.1,84,0.07,RA,,2.77,WeatherDisplay:10.37,2013-06-07 03:13:00,
2013-06-06 23:18:00,55.9,50.8,29.87,NE,44,2.3,2.3,83,0.06,RA,,2.77,WeatherDisplay:10.37,2013-06-07 03:18:00,
2013-06-06 23:23:00,55.9,50.8,29.87,South,183,1.1,0.0,83,0.07,RA,,2.78,WeatherDisplay:10.37,2013-06-07 03:23:00,
2013-06-06 23:28:00,55.9,51.1,29.87,SE,137,0.0,0.1,84,0.07,RA,,2.79,WeatherDisplay:10.37,2013-06-07 03:28:00,
2013-06-06 23:33:00,55.9,50.8,29.87,SSW,204,1.1,0.0,83,0.07,RA,,2.79,WeatherDisplay:10.37,2013-06-07 03:33:00,
2013-06-06 23:38:00,55.9,50.8,29.87,West,270,1.1,1.1,83,0.06,,,2.79,WeatherDisplay:10.37,2013-06-07 03:38:00,
2013-06-06 23:43:00,55.9,50.8,29.87,NE,37,2.0,2.0,83,0.06,RA,,2.80,WeatherDisplay:10.37,2013-06-07 03:43:00,
2013-06-06 23:48:00,55.8,51.0,29.87,SSE,153,0.0,0.0,84,0.06,RA,,2.80,WeatherDisplay:10.37,2013-06-07 03:48:00,
2013-06-06 23:54:00,55.7,50.6,29.86,West,265,0.0,0.0,83,0.05,,,2.80,WeatherDisplay:10.37,2013-06-07 03:54:00,
2013-06-06 23:59:00,55.7,50.9,29.86,South,177,2.3,2.3,84,0.06,RA,,2.81,WeatherDisplay:10.37,2013-06-07 03:59:00,